CW2157 Weather Reports


time (UTC)temp
C
wind
direction
speed
KPH
gust
KPH
rain 1hr
cm
rain 24hr
cm
rain mn
cm
humidity
%
barometer
mb
20260506070706 18 204 25.7 41.8 0.00 0.00 0.00 74 1009.7
20260506070206 18 203 24.1 37.0 0.00 0.00 0.00 74 1009.6
20260506062206 19 180 20.9 37.0 0.00 0.00 0.00 73 1009.7
20260506061706 19 206 24.1 41.8 0.00 0.00 0.00 73 1009.7
20260506061205 19 195 24.1 45.1 0.00 0.00 0.00 73 1009.7
20260506060706 19 201 25.7 37.0 0.00 0.00 0.00 73 1009.7
20260506060206 19 209 22.5 38.6 0.00 0.00 0.00 73 1009.7
20260506051205 20 193 27.4 41.8 0.00 0.00 0.00 71 1010.2
20260506050706 20 202 22.5 48.3 0.00 0.00 0.00 71 1010.1
20260506050206 20 201 22.5 41.8 0.00 0.00 0.00 71 1010.1
20260506044706 20 209 20.9 33.8 0.00 0.00 0.00 70 1010.2
20260506044205 20 192 27.4 37.0 0.00 0.00 0.00 70 1010.2
20260506043705 20 212 22.5 35.4 0.00 0.00 0.00 70 1010.2
20260506043205 20 205 22.5 32.2 0.00 0.00 0.00 71 1010.1
20260506042705 20 211 22.5 40.2 0.00 0.00 0.00 71 1010.2
20260506042205 20 207 22.5 33.8 0.00 0.00 0.00 72 1010.2
20260506041705 20 212 19.3 32.2 0.00 0.00 0.00 71 1010.1
20260506040705 20 189 19.3 32.2 0.00 0.00 0.00 71 1010.2
20260506040205 20 209 19.3 25.7 0.00 0.00 0.00 71 1010.2
20260506035706 20 191 19.3 35.4 0.00 0.00 0.00 69 1010.1
20260506035205 20 205 22.5 38.6 0.00 0.00 0.00 69 1010.0
20260506034705 20 358 22.5 32.2 0.00 0.00 0.00 69 1010.0
20260506034205 20 231 20.9 32.2 0.00 0.00 0.00 68 1010.0
20260506033705 20 13 19.3 32.2 0.00 0.00 0.00 67 1009.9
20260506033205 20 11 20.9 32.2 0.00 0.00 0.00 67 1009.8
20260506032705 20 333 20.9 40.2 0.00 0.00 0.00 66 1009.8
20260506032205 20 341 17.7 35.4 0.00 0.00 0.00 66 1009.9
20260506031706 20 340 19.3 29.0 0.00 0.00 0.00 66 1009.9
20260506031206 20 9 20.9 35.4 0.00 0.00 0.00 65 1009.9
20260506030706 20 59 19.3 32.2 0.00 0.00 0.00 66 1009.9
20260506030205 20 4 19.3 25.7 0.00 0.00 0.00 65 1010.0
20260506025205 20 23 20.9 32.2 0.00 0.00 0.00 65 1010.1
20260506024705 20 5 19.3 27.4 0.00 0.00 0.00 64 1010.0
20260506024205 20 95 20.9 35.4 0.00 0.00 0.00 64 1010.1
20260506023706 20 1 19.3 32.2 0.00 0.00 0.00 64 1010.1
20260506022705 20 70 17.7 33.8 0.00 0.00 0.00 63 1010.0
20260506022205 20 340 16.1 27.4 0.00 0.00 0.00 64 1010.0
20260506021705 21 248 19.3 33.8 0.00 0.00 0.00 63 1010.1
20260506021205 21 344 16.1 29.0 0.00 0.00 0.00 64 1010.0
20260506020705 21 354 19.3 32.2 0.00 0.00 0.00 63 1010.0
20260506020205 21 345 17.7 32.2 0.00 0.00 0.00 63 1009.9
20260506015705 21 21 19.3 32.2 0.00 0.00 0.00 63 1009.9
20260506015205 21 168 19.3 27.4 0.00 0.00 0.00 62 1009.9
20260506014705 21 186 20.9 27.4 0.00 0.00 0.00 63 1009.9
20260506013706 21 0 19.3 25.7 0.00 0.00 0.00 62 1009.8
20260506013206 21 178 19.3 32.2 0.00 0.00 0.00 63 1009.8
20260506012205 21 4 17.7 29.0 0.00 0.00 0.00 62 1009.8
20260506011705 21 7 19.3 29.0 0.00 0.00 0.00 62 1009.6
20260506011205 21 311 19.3 29.0 0.00 0.00 0.00 61 1009.6
20260506010705 21 330 16.1 24.1 0.00 0.00 0.00 61 1009.5
20260506010205 21 336 16.1 25.7 0.00 0.00 0.00 61 1009.4
20260506005705 21 179 16.1 32.2 0.00 0.00 0.00 60 1009.4
20260506004706 21 12 19.3 32.2 0.00 0.00 0.00 59 1009.2
20260506003706 22 354 16.1 32.2 0.00 0.00 0.00 58 1009.0
20260506003206 22 204 16.1 29.0 0.00 0.00 0.00 58 1008.9
20260506002205 22 8 17.7 32.2 0.00 0.00 0.00 57 1008.8
20260506001205 22 337 16.1 29.0 0.00 0.00 0.00 56 1008.9
20260506000706 22 225 16.1 27.4 0.00 0.00 0.00 55 1008.8
20260506000206 22 188 14.5 24.1 0.00 0.00 0.00 56 1008.7
20260505235705 22 336 16.1 25.7 0.00 0.00 0.00 56 1008.8
20260505235206 22 181 16.1 22.5 0.00 0.00 0.00 55 1008.6
20260505234705 23 212 19.3 29.0 0.00 0.00 0.00 54 1008.6
20260505234206 23 287 16.1 24.1 0.00 0.00 0.00 54 1008.6
20260505233705 23 168 11.3 32.2 0.00 0.00 0.00 55 1008.5
20260505233205 23 142 9.7 25.7 0.00 0.00 0.00 53 1008.4
20260505232706 23 181 14.5 25.7 0.00 0.00 0.00 54 1008.5
20260505232205 23 159 14.5 24.1 0.00 0.00 0.00 54 1008.5
20260505231705 23 155 16.1 24.1 0.00 0.00 0.00 54 1008.5
20260505231205 23 158 11.3 22.5 0.00 0.00 0.00 53 1008.5
20260505230705 23 173 11.3 19.3 0.00 0.00 0.00 53 1008.5
20260505230205 23 222 11.3 22.5 0.00 0.00 0.00 53 1008.5
20260505224705 23 203 12.9 24.1 0.00 0.00 0.00 53 1008.4
20260505224205 23 178 14.5 22.5 0.00 0.00 0.00 51 1008.5
20260505223705 23 24 14.5 27.4 0.00 0.00 0.00 52 1008.5
20260505223205 23 165 14.5 27.4 0.00 0.00 0.00 51 1008.4
20260505222705 23 186 16.1 27.4 0.00 0.00 0.00 52 1008.4
20260505222205 24 3 16.1 33.8 0.00 0.00 0.00 51 1008.5
20260505221705 24 38 12.9 22.5 0.00 0.00 0.00 52 1008.6
20260505221205 24 358 19.3 32.2 0.00 0.00 0.00 50 1008.5
20260505220705 24 248 16.1 32.2 0.00 0.00 0.00 50 1008.5
20260505220205 24 170 16.1 24.1 0.00 0.00 0.00 49 1008.4
20260505215706 25 300 20.9 27.4 0.00 0.00 0.00 49 1008.4
20260505215205 25 247 16.1 22.5 0.00 0.00 0.00 49 1008.5
20260505214704 25 103 14.5 25.7 0.00 0.00 0.00 49 1008.5
20260505214205 25 198 16.1 29.0 0.00 0.00 0.00 49 1008.5
20260505213705 25 253 19.3 27.4 0.00 0.00 0.00 49 1008.4
20260505212704 25 305 19.3 29.0 0.00 0.00 0.00 47 1008.3
20260505212205 26 355 19.3 27.4 0.00 0.00 0.00 48 1008.3
20260505211705 26 11 17.7 35.4 0.00 0.00 0.00 47 1008.3
20260505211205 26 4 19.3 29.0 0.00 0.00 0.00 46 1008.2
20260505210705 26 196 20.9 33.8 0.00 0.00 0.00 45 1008.3
20260505210205 26 177 22.5 32.2 0.00 0.00 0.00 44 1008.2
20260505205705 26 253 22.5 38.6 0.00 0.00 0.00 46 1008.2
20260505205205 26 189 29.0 48.3 0.00 0.00 0.00 44 1008.2
20260505204705 26 185 25.7 35.4 0.00 0.00 0.00 46 1008.2
20260505204205 26 210 25.7 37.0 0.00 0.00 0.00 46 1008.3
20260505203705 26 274 27.4 37.0 0.00 0.00 0.00 45 1008.3
20260505203205 26 200 24.1 41.8 0.00 0.00 0.00 44 1008.2
20260505202205 26 0 22.5 32.2 0.00 0.00 0.00 49 1008.5
20260505201705 26 331 22.5 33.8 0.00 0.00 0.00 51 1008.5
20260505201205 26 350 22.5 40.2 0.00 0.00 0.00 47 1008.6
20260505200705 26 238 22.5 33.8 0.00 0.00 0.00 45 1008.6
20260505200205 26 353 25.7 37.0 0.00 0.00 0.00 50 1008.7
20260505195205 27 293 22.5 32.2 0.00 0.00 0.00 46 1008.7
20260505194705 27 9 25.7 45.1 0.00 0.00 0.00 46 1008.8
20260505194205 27 351 22.5 32.2 0.00 0.00 0.00 48 1008.8
20260505193705 26 275 22.5 32.2 0.00 0.00 0.00 49 1009.0
20260505193205 26 224 20.9 38.6 0.00 0.00 0.00 48 1009.1
20260505192704 26 215 19.3 35.4 0.00 0.00 0.00 47 1009.2
20260505192204 26 222 22.5 35.4 0.00 0.00 0.00 50 1009.3
20260505191705 26 4 20.9 32.2 0.00 0.00 0.00 47 1009.4
20260505191206 26 205 20.9 38.6 0.00 0.00 0.00 50 1009.4
20260505190205 26 156 19.3 33.8 0.00 0.00 0.00 48 1009.6
20260505185705 26 355 20.9 37.0 0.00 0.00 0.00 47 1009.6
20260505185205 26 32 22.5 32.2 0.00 0.00 0.00 49 1009.8
20260505184205 26 166 22.5 32.2 0.00 0.00 0.00 50 1009.9
20260505183705 26 204 17.7 32.2 0.00 0.00 0.00 50 1009.9
20260505183205 26 210 19.3 32.2 0.00 0.00 0.00 47 1010.0
20260505182705 26 310 22.5 33.8 0.00 0.00 0.00 48 1010.0
20260505182205 26 335 22.5 33.8 0.00 0.00 0.00 48 1010.0
20260505181705 26 243 24.1 35.4 0.00 0.00 0.00 49 1010.0
20260505180205 26 18 22.5 32.2 0.00 0.00 0.00 47 1010.4
20260505175704 26 187 22.5 33.8 0.00 0.00 0.00 48 1010.4
20260505175205 26 207 22.5 32.2 0.00 0.00 0.00 47 1010.4
20260505174205 26 195 20.9 32.2 0.00 0.00 0.00 50 1010.4
20260505173705 25 243 25.7 38.6 0.00 0.00 0.00 49 1010.4
20260505173205 25 215 22.5 32.2 0.00 0.00 0.00 50 1010.4
20260505172705 25 304 24.1 37.0 0.00 0.00 0.00 51 1010.5
20260505172205 25 17 20.9 32.2 0.00 0.00 0.00 50 1010.5
20260505170705 25 197 22.5 35.4 0.00 0.00 0.00 53 1010.8
20260505170205 25 36 20.9 32.2 0.00 0.00 0.00 51 1010.9
20260505165705 25 172 19.3 27.4 0.00 0.00 0.00 51 1011.0
20260505164205 25 314 20.9 32.2 0.00 0.00 0.00 50 1011.1
20260505163205 24 191 19.3 29.0 0.00 0.00 0.00 55 1011.3
20260505162205 23 224 16.1 25.7 0.00 0.00 0.00 54 1011.3
20260505161705 23 187 20.9 32.2 0.00 0.00 0.00 55 1011.4
20260505161205 23 195 19.3 29.0 0.00 0.00 0.00 53 1011.5
20260505160705 23 186 16.1 27.4 0.00 0.00 0.00 54 1011.5
20260505153205 23 192 19.3 29.0 0.00 0.00 0.00 57 1011.5
20260505152705 23 184 19.3 29.0 0.00 0.00 0.00 54 1011.5
20260505152204 22 222 20.9 29.0 0.00 0.00 0.00 55 1011.5
20260505150705 22 207 16.1 25.7 0.00 0.00 0.00 57 1011.6
20260505150205 22 212 19.3 32.2 0.00 0.00 0.00 55 1011.7
20260505140205 21 208 17.7 27.4 0.00 0.00 0.00 58 1011.5
20260505124704 21 232 17.7 29.0 0.00 0.00 0.00 59 1011.4
20260505124204 20 217 17.7 24.1 0.00 0.00 0.00 62 1011.3
20260505123205 20 230 19.3 27.4 0.00 0.00 0.00 62 1011.3
20260505122705 20 217 25.7 29.0 0.00 0.00 0.00 65 1011.3
20260505121705 19 221 22.5 29.0 0.00 0.00 0.00 64 1011.2
20260505121205 19 226 19.3 29.0 0.00 0.00 0.00 64 1011.2
20260505120705 18 228 22.5 29.0 0.00 0.00 0.00 65 1011.2
20260505120205 18 217 19.3 27.4 0.00 0.00 0.00 66 1011.1
20260505115705 18 213 19.3 29.0 0.00 0.00 0.00 66 1011.1
20260505115205 18 214 20.9 25.7 0.00 0.00 0.00 66 1011.1
20260505114705 18 208 19.3 27.4 0.00 0.00 0.00 67 1011.0
20260505114204 18 207 20.9 32.2 0.00 0.00 0.00 67 1011.0
20260505113704 17 201 20.9 32.2 0.00 0.00 0.00 67 1011.0
20260505112205 17 236 20.9 27.4 0.00 0.00 0.00 69 1010.8
20260505111705 17 230 22.5 32.2 0.00 0.00 0.00 70 1010.9
20260505102205 16 209 16.1 24.1 0.00 0.00 0.00 72 1010.6
20260505101705 16 204 11.3 24.1 0.00 0.00 0.00 72 1010.5
20260505101205 16 196 16.1 24.1 0.00 0.00 0.00 71 1010.5
20260505100705 16 210 16.1 25.7 0.00 0.00 0.00 71 1010.5
20260505100205 16 207 16.1 24.1 0.00 0.00 0.00 71 1010.4
20260505095705 16 201 16.1 24.1 0.00 0.00 0.00 71 1010.4
20260505095204 16 206 16.1 24.1 0.00 0.00 0.00 72 1010.4
20260505094704 16 213 16.1 20.9 0.00 0.00 0.00 71 1010.3
20260505094205 16 196 17.7 25.7 0.00 0.00 0.00 72 1010.4
20260505093705 16 184 9.7 19.3 0.00 0.00 0.00 73 1010.3
20260505093205 16 193 14.5 19.3 0.00 0.00 0.00 72 1010.4
20260505092705 16 205 12.9 22.5 0.00 0.00 0.00 73 1010.3
20260505092205 16 171 9.7 19.3 0.00 0.00 0.00 74 1010.3
20260505091705 16 187 12.9 22.5 0.00 0.00 0.00 74 1010.3
20260505091204 16 195 14.5 19.3 0.00 0.00 0.00 73 1010.2
20260505090705 16 204 11.3 20.9 0.00 0.00 0.00 73 1010.2
20260505090204 16 182 12.9 19.3 0.00 0.00 0.00 73 1010.2
20260505085705 16 196 12.9 19.3 0.00 0.00 0.00 73 1010.2
20260505085205 16 190 14.5 22.5 0.00 0.00 0.00 73 1010.2
20260505084705 16 208 14.5 22.5 0.00 0.00 0.00 73 1010.2
20260505084204 16 196 12.9 24.1 0.00 0.00 0.00 73 1010.2
20260505083205 16 210 14.5 22.5 0.00 0.00 0.00 74 1010.2
20260505082705 16 197 12.9 20.9 0.00 0.00 0.00 75 1010.2
20260505082205 16 191 16.1 25.7 0.00 0.00 0.00 75 1010.1
20260505081705 16 195 14.5 25.7 0.00 0.00 0.00 75 1010.2
20260505081205 16 190 14.5 22.5 0.00 0.00 0.00 74 1010.3
20260505080705 16 210 14.5 22.5 0.00 0.00 0.00 73 1010.2
20260505080205 16 198 16.1 24.1 0.00 0.00 0.00 73 1010.1
20260505075705 16 207 16.1 22.5 0.00 0.00 0.00 72 1010.1
20260505075205 16 204 16.1 27.4 0.00 0.00 0.00 72 1010.2
20260505073705 16 210 20.9 29.0 0.00 0.00 0.00 71 1010.1
20260505073205 16 205 19.3 29.0 0.00 0.00 0.00 70 1010.1
20260505072705 17 206 19.3 29.0 0.00 0.00 0.00 70 1010.1
20260505072205 17 209 19.3 27.4 0.00 0.00 0.00 70 1010.0